Location: Caumont
(49.6316°N, 3.1742°E)
Time: 22:51:05
(UTC+00:00)

Daily predictions for brighter satellites

Satellite Brightness Start Highest point End
(mag) Time Altitude Azimuth Time Altitude Azimuth Time Altitude Azimuth
Cosmos 1697 Rocket 3.1 17:42:18 10° SW 17:47:54 71° WNW 17:53:33 10° NNE
SL-08 R/B 4.2 17:43:24 10° N 17:48:14 58° WNW 17:53:05 10° SSW
Okean 2 3.6 17:44:58 10° NNW 17:49:08 78° W 17:53:16 10° S
SL-14 R/B 3.3 17:49:19 10° N 17:53:15 60° ENE 17:57:13 10° SSE
MOS 1-B 4.4 17:49:09 10° SE 17:54:50 60° ENE 18:00:34 10° N
Cosmos 1733 3.1 17:51:41 10° S 17:55:23 67° E 17:59:07 10° NNE
Cosmos 2360 Rocket 3.9 17:55:15 10° E 17:55:51 10° E 17:56:28 10° E
Cosmos 1809 Rocket 4.5 17:52:55 10° S 17:58:50 58° E 18:04:48 10° NNE
MINOTAUR 4 R/B 3.9 17:55:47 10° NNE 17:59:18 83° ESE 18:02:46 10° SSW
Cosmos 540 Rocket 4.5 17:56:00 10° NNW 18:00:56 51° WSW 18:05:51 10° S
Cosmos 1766 3.8 17:58:13 10° SSE 18:01:48 35° E 18:05:26 10° NNE
Cosmos 1674 Rocket 3.6 17:58:06 10° N 18:02:30 63° ENE 18:06:53 10° SSE
Meteor 2-10 4.2 17:57:47 10° S 18:03:19 62° E 18:08:42 10° NNE
Cosmos 1025 Rocket 4.5 18:01:51 10° NNE 18:04:53 18° ENE 18:07:55 10° ESE
ATLAS 2AS CENTAUR R/B 4.3 17:59:46 10° WNW 18:06:05 28° N 18:12:08 10° NE
YAOGAN 1 2.7 18:02:45 10° SE 18:06:56 51° ENE 18:11:08 10° N
Cosmos 968 Rocket 4.2 18:03:47 10° SSE 18:08:20 31° ESE 18:12:53 10° NE
Okean O Rocket 1.9 18:06:37 10° SE 18:10:48 47° ENE 18:15:01 10° N
Cosmos 2084 4.1 18:08:40 10° WSW 18:12:21 48° NW 18:16:06 10° NE
IRIDIUM 106 4.5 18:07:26 10° SSE 18:12:27 50° E 18:17:29 10° NNE
Lacrosse 4 Rocket 3.1 18:10:56 10° SE 18:13:04 14° ESE 18:13:56 13° E
SKYMED 2 3.7 18:09:16 10° NNE 18:13:39 84° WNW 18:17:59 10° SSW
Meteor 2-5 Rocket 4.1 18:09:28 10° N 18:14:42 40° ENE 18:19:53 10° SE
Nadezhda 4 Rocket 4.1 18:09:39 10° SSE 18:15:46 54° E 18:21:53 10° NNE
Cosmos 2285 Rocket 4.0 18:14:46 10° NNW 18:21:10 75° ENE 18:27:33 10° SSE
PSLV R/B 4.2 18:19:27 10° S 18:23:05 62° WSW 18:26:44 10° NNW
Cosmos 1726 2.0 18:20:15 10° S 18:23:54 82° E 18:27:34 10° NNE
USA 186 3.3 18:22:42 17° E 18:23:54 21° ENE 18:26:31 10° NNE
Cosmos 2322 Rocket 3.1 18:19:30 10° SSE 18:24:10 27° ESE 18:28:51 10° NE
Cosmos 1470 3.5 18:25:18 10° SSE 18:28:39 29° E 18:32:00 10° NNE
Cosmos 1378 Rocket 3.8 18:24:40 10° NNW 18:29:04 72° W 18:33:22 10° S
CZ-4B R/B 3.2 18:23:54 10° SSE 18:29:19 88° WSW 18:34:52 10° NNW
Cosmos 1980 Rocket 2.6 18:24:23 10° SW 18:30:00 66° WNW 18:35:36 10° NNE
Cosmos 1975 Rocket 3.8 18:26:11 10° N 18:30:09 31° ENE 18:33:08 15° SE
ARGOS Delta rocket 3.9 18:25:37 10° NNE 18:30:56 80° E 18:35:55 10° S
Cosmos 2292 Rocket 3.7 18:33:53 10° S 18:38:46 51° E 18:42:32 10° NNE
Cosmos 1733 Rocket 4.4 18:38:44 10° SSW 18:42:58 43° WNW 18:47:15 10° N
USA 215 3.4 18:37:35 10° ENE 18:44:08 77° NNW 18:50:40 10° WSW
COBE Rocket 4.4 18:42:48 10° S 18:47:35 61° W 18:52:17 10° NNW
Cosmos 1844 Rocket 2.9 18:43:49 10° NNW 18:49:24 54° NE 18:52:59 22° SE
Cosmos 2278 3.9 18:47:41 10° SW 18:53:23 76° WNW 18:59:06 10° NNE
SL-16 R/B 2.2 18:48:37 10° S 18:54:10 59° ESE 18:59:45 10° NE
Cosmos 1570 Rocket 4.1 18:49:27 10° NNW 18:54:44 76° WSW 18:59:56 10° SSE
Landsat 5 4.0 18:51:11 10° NNE 18:55:26 39° E 18:59:35 10° SSE
Cosmos 1092 Rocket 4.0 18:51:03 10° S 18:57:14 63° E 19:03:25 10° NNE
DMSP B5D1-3 4.4 18:55:42 10° NNE 19:00:50 88° ESE 19:05:59 10° SSW
Resurs 01 Rocket 2.9 19:01:19 23° ENE 19:01:19 23° ENE 19:04:37 10° N
SJ-6B 2.7 19:02:08 37° SE 19:03:19 56° ENE 19:07:04 10° N
Cosmos 2278 Rocket 3.9 19:00:23 10° N 19:04:03 17° NE 19:05:41 15° NE
Cosmos 1437 Rocket 2.8 19:02:31 10° SSW 19:06:15 75° WNW 19:10:01 10° N
H-2A R/B 3.6 19:07:11 25° NE 19:07:11 25° NE 19:09:47 10° N
Gbstr 26 Del rocket 4.5 18:59:09 10° WSW 19:06:50 89° NNW 19:12:39 22° ENE
Cosmos 2263 Rocket 4.1 19:03:21 10° NW 19:08:14 30° WSW 19:13:08 10° SSW
Meteor 1-24 Rocket 3.5 19:04:48 10° NNW 19:10:09 88° W 19:15:32 10° S
Resurs 1-3 3.7 19:11:26 41° ESE 19:12:28 51° ENE 19:16:44 10° N
SL-4 R/B 3.7 19:11:33 10° W 19:15:29 30° SW 19:17:52 19° S
MetOp-A 4.3 19:17:19 32° NE 19:17:19 32° NE 19:20:20 10° N
Cosmos 2084 Rocket 3.5 19:14:53 10° NW 19:18:41 60° SW 19:19:51 40° S
USA 267 4.5 19:14:51 10° SSE 19:20:48 36° SW 19:26:46 10° WNW
Okean-O 2.5 19:20:29 38° SSE 19:22:08 78° ENE 19:26:35 10° NNW
CZ-4 R/B 2.9 19:19:39 10° SSW 19:23:34 38° W 19:27:29 10° NNW
Cosmos 1486 Rocket 4.1 19:18:29 10° S 19:23:38 52° ESE 19:28:49 10° NNE
Cosmos 1844 3.5 19:18:23 10° NNW 19:23:59 79° ENE 19:26:12 38° SE
OBJECT-B 1.9 19:24:55 32° NW 19:24:55 32° NW 19:26:36 10° NNW
IGS 5A 3.3 19:24:38 41° SSE 19:26:02 88° WSW 19:30:12 10° NNW
DNEPR-1 R/B 3.9 19:23:01 10° SSW 19:27:40 61° ESE 19:30:36 27° NE
Meteor 1-22 Rocket 4.3 19:23:15 10° SSW 19:28:41 77° WNW 19:34:24 10° N
S3M 4.3 19:23:16 10° N 19:29:14 44° ENE 19:30:10 41° E
Cosmos 773 Rocket 4.3 19:25:18 10° NNW 19:30:27 47° ENE 19:31:00 46° E
Cosmos 1300 Rocket 3.4 19:30:15 55° SSE 19:31:03 72° E 19:35:25 10° NNE
CSL-04 Debris 4.3 19:28:02 17° S 19:32:20 74° WSW 19:37:45 10° NNW
Cosmos 1627 Rocket 4.5 19:30:14 10° SSW 19:36:21 80° W 19:42:31 10° N
Cosmos 2360 Rocket 2.1 19:33:08 10° SSW 19:38:42 63° ESE 19:44:16 10° NE
USA 81 4.3 19:33:29 10° N 19:38:44 68° W 19:43:22 13° S
Cosmos 1782 Rocket 4.1 19:35:13 10° SSW 19:39:29 56° WNW 19:43:49 10° N
Cosmos 1025 Rocket 3.7 19:38:36 10° NNW 19:42:50 54° W 19:44:51 28° SSW
Cosmos 158 Rocket 4.4 19:40:42 10° NNW 19:44:48 41° NE 19:44:48 41° NE
Okean O Rocket 4.0 19:44:00 10° SW 19:47:22 22° W 19:50:47 10° NW
Cosmos 1417 Rocket 4.3 19:43:38 10° N 19:49:47 71° E 19:51:03 55° SE
Lacrosse 4 Rocket 1.8 19:46:58 10° SW 19:50:17 56° WSW 19:50:17 56° WSW
Cosmos 2026 Rocket 4.3 19:46:58 10° SSW 19:52:57 62° WNW 19:59:00 10° N
USA 186 3.7 19:55:51 28° WSW 19:56:04 29° W 19:59:02 10° NNW
CSL-04 Rocket 4.3 19:55:05 22° SSW 19:58:21 52° W 20:03:39 10° NNW
ATLAS 2AS CENTAUR R/B 3.9 19:52:50 10° NW 19:59:15 31° NNE 20:01:35 26° NE
MOS 1 4.1 20:01:33 74° ESE 20:01:53 77° ENE 20:07:35 10° NNW
Cosmos 1553 Rocket 4.2 19:57:13 10° NNW 20:03:33 73° W 20:06:33 34° S
Landsat 7 4.3 20:04:06 51° SW 20:04:49 57° W 20:09:29 10° NNW
deb Chang Zheng 4 4.2 20:05:56 51° NW 20:05:56 51° NW 20:09:10 10° NNW
Cosmos 1536 Rocket 4.5 20:01:50 10° N 20:04:42 41° N 20:04:42 41° N
SPOT 1/Viking Rocket 3.5 20:07:53 76° N 20:07:53 76° N 20:12:40 10° NNW
Cosmos 2322 Rocket 2.7 20:02:12 10° SW 20:07:50 60° WNW 20:13:30 10° NNE
NOSS 3-4 (A) 3.8 20:04:16 10° NW 20:11:02 67° NE 20:12:04 60° E
NOSS 3-4 (C) 3.8 20:04:23 10° NW 20:11:08 67° NE 20:12:10 60° E
Ariane Rocket 3.7 20:16:26 46° NNE 20:16:26 46° NNE 20:20:09 10° N
NOSS 3-3 (A) 4.1 20:15:52 10° SW 20:30:26 - NE 20:20:03 54° SW
NOSS 3-3 (C) 4.2 20:15:57 10° SW 20:30:31 - NE 20:19:58 50° SSW
Aureole 1 Rocket 3.9 20:18:28 10° SSW 20:25:49 86° WNW 20:31:34 10° NNE
USA 215 3.9 20:24:15 33° NE 20:26:47 49° N 20:33:00 10° W
USA 281 3.8 20:27:40 43° NE 20:27:40 43° NE 20:33:26 10° NNW
Meteor 1-16 Rocket 4.5 20:30:32 68° N 20:30:32 68° N 20:35:42 10° N
Cosmos 1844 Rocket 4.2 20:28:10 10° NW 20:33:01 30° WSW 20:34:40 25° SW
Resurs 01 Rocket 3.2 20:38:52 34° NW 20:38:52 34° NW 20:41:42 10° NNW
SL-16 R/B 3.9 20:33:40 10° WSW 20:38:39 31° NW 20:43:40 10° NNE
Cosmos 2315 Rocket 4.2 20:32:28 10° N 20:37:55 66° N 20:37:55 66° N
Terra 4.0 20:42:43 19° N 20:42:43 19° N 20:44:11 10° N
Cosmos 1943 Rocket 3.9 20:35:57 10° NNW 20:38:59 22° NNE 20:38:59 22° NNE
Cosmos 2278 Rocket 3.1 20:43:42 10° NNW 20:47:32 41° N 20:47:32 41° N
Gbstr 26 Del rocket 4.5 20:46:45 10° W 20:54:46 77° N 20:55:06 76° NNE
Cosmos 2369 Rocket 4.4 20:56:02 10° N 20:58:48 16° NNE 20:58:48 16° NNE
Cosmos 2333 Rocket 4.3 21:18:31 20° NNE 21:18:31 20° NNE 21:20:17 10° NNE
Cosmos 2360 Rocket 3.9 21:18:14 10° WSW 21:23:07 29° NW 21:28:02 10° NNE
ATLAS 2AS CENTAUR R/B 3.7 21:44:15 10° NW 21:49:00 43° NNW 21:49:00 43° NNW
USA 215 4.5 22:11:37 36° NW 22:11:37 36° NW 22:15:31 10° WNW
